Weather Roundup
Issued by NWS

Home | Current Version | Previous Version | Graphics & Text | Print | Product List | Glossary Off
Versions: 1 2 3 4 5 6 7 8 9 10 11 12 13 14 15 16 17 18 19 20 21 22 23 24 25 26 27 28 29 30 31 32 33 34 35 36 37 38 39 40 41 42 43 44 45 46 47 48 49 50

000
NZUS93 KARX 170010
HRRWXR

CURRENT HOURLY OBSERVATIONS ACROSS
MUCH OF THE UPPER MISSISSIPPI VALLEY
NATIONAL WEATHER SERVICE LA CROSSE WI
700 PM CDT WED AUG 16 2017


...SOUTHEAST MINNESOTA...


CITY           SKY/WX    TMP DP  RH WIND       PRES   REMARKS
ROCHESTER      LGT RAIN  71  70  96 SE12      29.72F
ROCHESTER/MAYO CLOUDY    70  70 100 E10G21    29.73S
WINONA         CLOUDY    73  72  94 SE12G18   29.75R
AUSTIN         CLOUDY    73  70  88 SE5       29.70F
ALBERT LEA     CLOUDY    75  73  94 SE8       29.69F FOG
DODGE CENTER   CLOUDY    70  68  94 SE15G24   29.72F
PRESTON        HVY RAIN  71  68  92 SE12G17   29.75S
OWATONNA       HVY RAIN  73  70  88 E18G26    29.67F
FARIBAULT      RAIN      73  72  94 E20G30    29.69S
$$

...ELSEWHERE IN MINNESOTA...


CITY           SKY/WX    TMP DP  RH WIND       PRES   REMARKS
MINNEAPOLIS    LGT RAIN  76  69  79 E15       29.69F
INTNL FALLS    LGT RAIN  62  60  93 E5        29.89F FOG
DULUTH         CLOUDY    60  60 100 E13       29.86F FOG
RED WING       CLOUDY    77  66  69 E9        29.70F
REDWOOD FALLS  RAIN      69  67  93 NE9       29.63F FOG
MANKATO        LGT RAIN  67  65  93 S8        29.67R
WORTHINGTON    CLOUDY    69  67  93 SW14G22   29.65S
FAIRMONT       CLOUDY    72  70  93 S7        29.65F
$$

...SOUTHWEST WISCONSIN...


CITY           SKY/WX    TMP DP  RH WIND       PRES   REMARKS
LA CROSSE      LGT RAIN  76  72  87 E10       29.75S
PRAIRIE DU CHI LGT RAIN  73  71  92 SE8       29.75F
BOSCOBEL       PTSUNNY   78  71  79 VRB6      29.77F
LONE ROCK      CLOUDY    75  73  93 E14       29.79F
PLATTEVILLE    CLOUDY    74  74 100 SE14      29.80F
FORT MC COY    RAIN      72  69  91 SE6       29.79S
CAMP DOUGLAS   CLOUDY    75  68  78 E12       29.79F
MAUSTON-NEW LI RAIN      78  69  73 E9G16     29.79F
VIROQUA        MOCLDY    72  72 100 E10       29.79F
WIS DELLS      RAIN      73  69  88 SE12G17   29.85R
$$

...ELSEWHERE IN WISCONSIN...


CITY           SKY/WX    TMP DP  RH WIND       PRES   REMARKS
MILWAUKEE      RAIN      73  69  87 E5        29.90R
MADISON        CLOUDY    73  71  93 SE14      29.85R
GREEN BAY      CLOUDY    71  64  78 E8        29.90F
EAU CLAIRE     CLOUDY    76  65  68 E12       29.76F
BLACK RVR FLS  FAIR      78  64  62 E6        29.78F
MEDFORD        CLOUDY    70  63  76 E9        29.86F
WAUSAU         CLOUDY    71  63  75 SE14      29.87F
WIS RAPIDS     CLOUDY    75  65  70 E14       29.86F
MARSHFIELD     CLOUDY    74  62  66 E14       29.84F
RICE LAKE      CLOUDY    74  65  73 E12       29.81F
$$

...NORTHEAST IOWA...


CITY           SKY/WX    TMP DP  RH WIND       PRES   REMARKS
WATERLOO       PTSUNNY   81  70  69 S14       29.70F
DUBUQUE        CLOUDY    76  73  91 SE9       29.79F
DECORAH        CLOUDY    73  72  94 SE10G20   29.74S
MASON CITY     PTSUNNY   75  71  87 S7        29.71F
CHARLES CITY   RAIN      75  75 100 SW6       29.72F
OELWEIN        PTSUNNY   77  75  94 S8G15     29.74S
$$

...ELSEWHERE IN IOWA...


CITY           SKY/WX    TMP DP  RH WIND       PRES   REMARKS
DES MOINES     MOSUNNY   85  68  56 SW16      29.71F
IOWA CITY      CLOUDY    83  72  69 S14       29.76F
FORT DODGE     MOSUNNY   79  66  65 SW12G23   29.70S
MARSHALLTOWN   PTSUNNY   81  72  74 S15       29.70F
CEDAR RAPIDS   MOSUNNY   81  72  74 S8        29.74F
$$

...NORTHERN ILLINOIS...


CITY           SKY/WX    TMP DP  RH WIND       PRES   REMARKS
CHICAGO-OHARE  CLOUDY    77  71  82 SE8       29.87F
CHICAGO-MIDWAY CLOUDY    80  74  81 E6        29.87F
MOLINE         CLOUDY    80  73  79 S9        29.79S
ROCKFORD       CLOUDY    76  71  85 SE14      29.86R
PEORIA         CLOUDY    80  75  84 S12G23    29.84S
$$

NOTE: "FAIR" INDICATES FEW OR NO CLOUDS BELOW 12,000 FEET WITH NO
SIGNIFICANT WEATHER AND/OR OBSTRUCTIONS TO VISIBILITY. WIND
SPEEDS ARE IN MILES-PER-HOUR.




USA.gov is the U.S. government's official web portal to all federal, state and local government web resources and services.